2023/02/17 00:00:00,88.8,-7.1
2023/02/17 00:10:00,88.7,-7.2
2023/02/17 00:20:00,88.6,-6.8
2023/02/17 00:30:00,88.6,-7.2
2023/02/17 00:40:00,88.6,-7.2
2023/02/17 00:50:00,88.6,-7.2
2023/02/17 01:00:00,88.6,-7.2
2023/02/17 01:10:00,88.5,-7.2
2023/02/17 01:20:00,88.5,-7.3
2023/02/17 01:30:00,88.5,-7.2
2023/02/17 01:40:00,88.5,-7.1
2023/02/17 01:50:00,88.5,-7.2
2023/02/17 02:00:00,88.5,-6.9
2023/02/17 02:10:00,88.4,-7.0
2023/02/17 02:20:00,88.4,-7.2
2023/02/17 02:30:00,88.4,-7.2
2023/02/17 02:40:00,88.4,-7.4
2023/02/17 02:50:00,88.4,-7.5
2023/02/17 03:00:00,88.4,-7.2
2023/02/17 03:10:00,88.4,-7.5
2023/02/17 03:20:00,88.3,-7.5
2023/02/17 03:30:00,88.3,-7.3
2023/02/17 03:40:00,88.3,-7.4
2023/02/17 03:50:00,88.3,-7.4
2023/02/17 04:00:00,88.3,-7.3
2023/02/17 04:10:00,88.3,-7.5
2023/02/17 04:20:00,88.3,-7.4
2023/02/17 04:30:00,88.3,-7.4
2023/02/17 04:40:00,88.3,-7.3
2023/02/17 04:50:00,88.3,-6.9
2023/02/17 05:00:00,88.2,-7.3
2023/02/17 05:10:00,88.2,-7.0
2023/02/17 05:20:00,88.2,-7.0
2023/02/17 05:30:00,88.2,-7.0
2023/02/17 05:40:00,88.2,-6.7
2023/02/17 05:50:00,88.2,-6.8
2023/02/17 06:00:00,88.1,-6.4
2023/02/17 06:10:00,88.2,-6.2
2023/02/17 06:20:00,88.2,-6.0
2023/02/17 06:30:00,88.1,-5.5
2023/02/17 06:40:00,88.1,-5.2
2023/02/17 06:50:00,88.1,-4.6
2023/02/17 07:00:00,88.1,-4.5
2023/02/17 07:10:00,88.2,-3.6
2023/02/17 07:20:00,88.2,-3.8
2023/02/17 07:30:00,88.1,-3.2
2023/02/17 07:40:00,88.2,-2.8
2023/02/17 07:50:00,88.1,-2.4
2023/02/17 08:00:00,88.1,-2.1
2023/02/17 08:10:00,88.1,-1.6
2023/02/17 08:20:00,88.1,-1.5
2023/02/17 08:30:00,88.1,-1.1
2023/02/17 08:40:00,88.0,-0.8
2023/02/17 08:50:00,88.0,-0.3
2023/02/17 09:00:00,88.0,-0.1
2023/02/17 09:10:00,88.0, 0.1
2023/02/17 09:20:00,88.1, 0.3
2023/02/17 09:30:00,88.0, 0.8
2023/02/17 09:40:00,88.0, 2.1
2023/02/17 09:50:00,88.0, 3.4
2023/02/17 10:00:00,88.0, 3.6
2023/02/17 10:10:00,87.9, 4.2
2023/02/17 10:20:00,87.9, 4.9
2023/02/17 10:30:00,87.8, 5.0
2023/02/17 10:40:00,87.7, 5.0
2023/02/17 10:50:00,87.7, 5.9
2023/02/17 11:00:00,87.5, 6.6
2023/02/17 11:10:00,87.4, 7.2
2023/02/17 11:20:00,87.1, 9.3
2023/02/17 11:30:00,86.9, 8.9
2023/02/17 11:40:00,86.7, 9.2
2023/02/17 11:50:00,86.4,10.3
2023/02/17 12:00:00,86.2,11.2
2023/02/17 12:10:00,85.9, 9.4
2023/02/17 12:20:00,85.6,10.4
2023/02/17 12:30:00,85.4,10.9
2023/02/17 12:40:00,85.1,11.0
2023/02/17 12:50:00,84.8,11.6
2023/02/17 13:00:00,84.5,10.6
2023/02/17 13:10:00,84.3,11.3
2023/02/17 13:20:00,84.3,11.4
2023/02/17 13:30:00,84.1, 9.6
2023/02/17 13:40:00,84.0,11.0
2023/02/17 13:50:00,83.8,11.8
2023/02/17 14:00:00,83.6,14.9
2023/02/17 14:10:00,83.3,11.0
2023/02/17 14:20:00,83.0, 9.9
2023/02/17 14:30:00,82.7,12.2
2023/02/17 14:40:00,82.5,13.5
2023/02/17 14:50:00,82.3,14.2
2023/02/17 15:00:00,82.0,12.1
2023/02/17 15:10:00,81.7,13.4
2023/02/17 15:20:00,81.4,12.4
2023/02/17 15:30:00,81.2,14.7
2023/02/17 15:40:00,81.0,16.7
2023/02/17 15:50:00,80.8,19.0
2023/02/17 16:00:00,80.5,17.8
2023/02/17 16:10:00,80.3,17.8
2023/02/17 16:20:00,80.2,16.5
2023/02/17 16:30:00,80.1,14.7
2023/02/17 16:40:00,80.1,13.4
2023/02/17 16:50:00,80.1,10.2
2023/02/17 17:00:00,80.1, 8.5
2023/02/17 17:10:00,80.1, 6.0
2023/02/17 17:20:00,80.1, 4.9
2023/02/17 17:30:00,80.1, 3.6
2023/02/17 17:40:00,80.1, 2.6
2023/02/17 17:50:00,80.0, 2.1
2023/02/17 18:00:00,80.0, 1.7
2023/02/17 18:10:00,80.0, 1.8
2023/02/17 18:20:00,79.9, 1.7
2023/02/17 18:30:00,79.8, 1.8
2023/02/17 18:40:00,79.8, 1.7
2023/02/17 18:50:00,79.8, 1.7
2023/02/17 19:00:00,79.8, 1.7
2023/02/17 19:10:00,79.8, 1.7
2023/02/17 19:20:00,79.7, 1.7
2023/02/17 19:30:00,79.6, 1.6
2023/02/17 19:40:00,79.7, 1.5
2023/02/17 19:50:00,79.6, 1.5
2023/02/17 20:00:00,79.6, 1.5
2023/02/17 20:10:00,79.6, 1.7
2023/02/17 20:20:00,79.6, 1.8
2023/02/17 20:30:00,79.6, 1.7
2023/02/17 20:40:00,79.5, 1.7
2023/02/17 20:50:00,79.5, 1.6
2023/02/17 21:00:00,79.5, 1.7
2023/02/17 21:10:00,79.5, 1.7
2023/02/17 21:20:00,79.5, 2.0
2023/02/17 21:30:00,79.5, 1.6
2023/02/17 21:40:00,79.5, 1.7
2023/02/17 21:50:00,79.5, 1.6
2023/02/17 22:00:00,79.5, 1.6
2023/02/17 22:10:00,79.4, 1.4
2023/02/17 22:20:00,79.4, 1.1
2023/02/17 22:30:00,79.5, 0.9
2023/02/17 22:40:00,79.5, 0.8
2023/02/17 22:50:00,79.4, 0.3
2023/02/17 23:00:00,79.5, 0.7
2023/02/17 23:10:00,79.5, 0.4
2023/02/17 23:20:00,79.4, 0.6
2023/02/17 23:30:00,79.4, 0.2
2023/02/17 23:40:00,79.4, 0.8
2023/02/17 23:50:00,79.4, 1.0
